This is the latest recevied weather packets stored in our database for station/object KC2NJV-10. If no packets are shown the sender has not sent any weather packets the latest 10 day(s).
| Time | Temp. | Humidity | Pressure | Rain* | Wind** | Luminosity | Snow |
|---|---|---|---|---|---|---|---|
| 1777443768 | 10° C | 71% | 300.7 hPa | 0 mm | - | - | - |
| 1777442953 | 10° C | 71% | 300.7 hPa | 0 mm | - | - | - |
| 1777442868 | 10° C | 71% | 300.7 hPa | 0 mm | - | - | - |
| 1777441968 | 10.56° C | 65% | 301 hPa | 0 mm | - | - | - |
| 1777441069 | 10.56° C | 65% | 301 hPa | 0 mm | - | - | - |
| 1777440167 | 10.56° C | 65% | 301 hPa | 0 mm | - | - | - |
| 1777438368 | 10° C | 71% | 300.9 hPa | 0 mm | - | - | - |
| 1777437471 | 10° C | 71% | 300.9 hPa | 0 mm | - | - | - |
| 1777436568 | 10° C | 71% | 300.9 hPa | 0 mm | - | - | - |
| 1777435668 | 10° C | 71% | 300.9 hPa | 0 mm | - | - | - |
| 1777433868 | 10° C | 68% | 300.7 hPa | 0 mm | - | - | - |
| 1777432968 | 10° C | 68% | 300.7 hPa | 0 mm | - | - | - |
| 1777432068 | 10° C | 68% | 300.7 hPa | 0 mm | - | - | - |
| 1777431169 | 10.56° C | 63% | 300.8 hPa | 0 mm | - | - | - |
| 1777430268 | 10.56° C | 63% | 300.8 hPa | 0 mm | - | - | - |
| 1777429369 | 10.56° C | 63% | 300.8 hPa | 0 mm | - | - | - |
| 1777428467 | 10.56° C | 63% | 300.8 hPa | 0 mm | - | - | - |
| 1777427568 | 10.56° C | 63% | 300.9 hPa | 0 mm | - | - | - |
| 1777426668 | 10.56° C | 63% | 300.9 hPa | 0 mm | - | - | - |
| 1777425768 | 10.56° C | 63% | 300.9 hPa | 0 mm | - | - | - |
| 1777424868 | 10.56° C | 63% | 300.9 hPa | 0 mm | - | - | - |
| 1777423127 | 11.67° C | 50% | 300.8 hPa | 0 mm | - | - | - |
| 1777423068 | 11.67° C | 50% | 300.8 hPa | 0 mm | - | - | - |
| 1777422167 | 11.67° C | 50% | 300.8 hPa | 0 mm | - | - | - |
| 1777421301 | 11.67° C | 50% | 300.8 hPa | 0 mm | - | - | - |
* Rain latest hour (hover to see other rain measurements)
** Current wind speed in m/s (hover to see current wind gust speed)